{"data":{"norad_id":67430,"epoch":"2026-05-25T01:17:35.155104Z","epoch_age_seconds":74240,"freshness":"FRESH","line1":"1 67430U 26005AC  26145.05387911  .00015285  00000+0  56358-3 0  9995","line2":"2 67430  43.0016 166.8695 0001362 267.6668  92.4027 15.27593895 20369","mean_motion":15.27593895,"eccentricity":0.0001362,"inclination_deg":43.0016,"raan_deg":166.8695,"arg_perigee_deg":267.6668,"mean_anomaly_deg":92.4027,"bstar":0.00056358,"rev_number":2036,"period_min":94.265891262939,"perigee_km":482.07300184683,"apogee_km":483.94197760583,"semimajor_km":6861.1444897263,"source":"CELESTRAK","updated_at":"2026-05-25T13:38:21.558350Z"}}